User: anonymous   Login
Location: Unspecified
(48.5670°N, 0.0000°E)
Time: 07:12:27
(UTC+00:00)
Language:

SR - Orbit

View from above orbital plane
View from above orbital plane
View from above satellite
View from above satellite

Ground track
Ground track

The orbit data is extracted from the following two-line orbital elements,

1    46U 60007B   19201.21352238 -.00000086  00000-0  60575-5 0  9995
2    46  66.6888 226.9277 0207878  17.5165 343.2972 14.49233423 90819
Epoch (UTC): 20 July 2019 05:07:28
Eccentricity: 0.0207878
inclination: 66.6888°
perigee height: 580 km
apogee height: 876 km
right ascension of ascending node: 226.9277°
argument of perigee: 17.5165°
revolutions per day: 14.49233423
mean anomaly at epoch: 343.2972°
orbit number at epoch: 9081

The dashed part of the orbit path shows where the satellite is in the earth's shadow,  

DLR